Regional Weather Roundup
Issued by NWS Midland/Odessa, TX

Skip options and go directly to product.
Home | Oldest Version | Next Version | Current Version | All | Text Only | Save Text | Print | Product List | Glossary On

Skip product version selection by date and time.   
525
ASUS44 KMAF 250610
RWRMAF
MIDLAND AREA WEATHER ROUNDUP
NATIONAL WEATHER SERVICE MIDLAND TX
100 AM CDT SAT JUN 25 2016

...IN SOUTHWEST TEXAS AND SOUTHEAST NEW MEXICO...

CITY           SKY/WX    TMP DP  RH WIND       PRES   REMARKS
ALPINE         CLOUDY    74  57  55 S8        30.15F
ANDREWS        FAIR      76  56  49 S10G17    30.05S
ARTESIA        CLEAR     79  52  38 S14       30.02R
BIG SPRING     CLOUDY    75  59  57 SE8       30.06R
CARLSBAD       CLEAR     81  53  37 SE14      30.00S
DRYDEN           N/A     82  61  48 E15       29.97S
FORT STOCKTON  CLEAR     79  61  53 SE12G26   30.01S
GUAD PASS      CLEAR     72  52  49 NE31        N/A
HOBBS          CLEAR     75  52  43 SE15      30.07S
MARFA          CLEAR    N/A N/A N/A VRB3      30.13F
MIDLAND AIRPK  CLEAR     81  59  47 S12       30.04S
MIDLAND INTL   CLEAR     80  59  48 SE13      30.04S
ODESSA         CLEAR     80  59  48 SE13      30.04F
PECOS          CLEAR     81  62  51 E15       29.98S
PRESIDIO       NOT AVBL
SEMINOLE       CLEAR     75  53  45 S9        30.06S
SNYDER           N/A     76  62  61 S9        30.04S
WINK           CLEAR     80  60  50 SE12      29.99S
$$
...OTHER STATIONS IN TEXAS...

CITY           SKY/WX    TMP DP  RH WIND       PRES   REMARKS
ABILENE        CLEAR     77  67  71 S14       30.02S
AMARILLO       CLEAR     76  56  49 S16       30.03F
AUSTIN         PTCLDY    76  72  87 CALM      30.02S
BROWNSVILLE    MOCLDY    83  76  79 SE12      29.99S
CORPUS CHRISTI CLOUDY    82  77  84 SE8       29.98F
DALLAS FTW     PTCLDY    84  68  58 S12       29.99S
DEL RIO        PTCLDY    84  70  62 SE15G24   29.94R
EL PASO        CLOUDY    78  57  48 W12       30.08R
HOUSTON INT    PTCLDY    80  75  84 S3        30.03S
LUBBOCK        CLEAR     78  58  49 S16       30.04S
SAN ANGELO     CLEAR     74  61  63 SE7       30.01F
SAN ANTONIO    MOCLDY    79  73  82 SE10      30.02F
WACO           CLEAR     82  71  69 S16       30.01R
WICHITA FALLS  NOT AVBL
$$
...OTHER LOCATIONS IN NEW MEXICO...

CITY           SKY/WX    TMP DP  RH WIND       PRES   REMARKS
ALAMAGORDO     TSTM      66  64  94 E8        30.11F
ALBUQUERQUE    CLOUDY    76  47  35 S9        30.11S
CANNON AFB     PTCLDY    75  54  48 S9        30.08R
CLOVIS         CLEAR     73  52  46 S10       30.08S
HOLLOMAN AFB   TSTM      70  64  83 W16       30.08F
ROSWELL        CLOUDY    83  49  30 S16       30.03R
RUIDOSO          N/A     66  50  55 S9        30.27S
SANTA FE       CLOUDY    74  42  31 N3        30.17S
TRUTH OR CONSE CLOUDY    78  51  38 SW9       30.10R
TUCUMCARI      CLOUDY    79  51  37 S14       30.01F
$$

USA.gov is the U.S. government's official web portal to all federal, state and local government web resources and services.